Weather in Tukums

Latvia     56˚57′59″N   23˚09′15″E
temp.,
°C
wind,
m/s
gust,
m/s
humid.,
%
clouds,
%
prec.,
mm/h
press.,
hPa
HPBL,
m
2 december, wed
wed223:00−2˚s3791100 0.0 1029317
02:00−3˚sse369491 0.0 1030240
05:00−4˚sse379658 0.0 1030242
08:00−4˚sse379570 0.0 1030257
11:00−3˚sse378949 0.0 1030300
14:00−2˚sse378332 0.0 1028372
17:00−3˚sse498997 0.0 1027363
20:00−3˚sse499384 0.0 1026418
3 december, thu
thu323:00−3˚sse498895 0.0 1025518
02:00−4˚sse389481 0.0 1023359
05:00−3˚sse489385 0.0 1021395
08:00−3˚sse499088 0.0 1019488
11:00−3˚sse5108789 0.0 1019573
14:00−2˚sse5108594 0.1 1018684
17:00−1˚sse61083100 0.0 1016787
20:00−1˚sse61382100 0.0 1015704
4 december, fri
fri423:00−1˚sse71486100 0.1 1014737
02:00sse71488100 0.1 1014835
05:00+1˚sse71484100 0.1 1012851
08:00+1˚sse71583100 0.1 1012759
11:00+2˚sse71583100 0.0 1012771
14:00+2˚sse81586100 0.0 1011828
17:00+3˚se81684100 0.0 1010891
20:00+3˚sse81686100 0.0 1010889
5 december, sat
sat523:00+5˚sse71686100 0.0 1010950
02:00+5˚sse71686100 0.0 1011938
05:00+5˚sse71685100 0.0 1011895
08:00+5˚sse81686100 0.0 1013846
11:00+6˚sse81685100 0.0 1014818
14:00+6˚sse71584100 0.0 1015800
17:00+6˚sse71585100 0.0 1015793
20:00+7˚sse71485100 0.0 1016804
6 december, sun
sun623:00+7˚sse61385100 0.0 1017870
02:00+6˚sse71384100 0.0 1017893
05:00+6˚sse61384100 0.0 1017802
08:00+6˚sse71383100 0.0 1018863
11:00+6˚se71481100 0.0 1018875
14:00+6˚sse71377100 0.0 10181051
17:00+4˚se71479100 0.0 1018936
20:00+3˚se71580100 0.0 1019834